Aurillac, France

10:33 AM CEST on June 25, 2017 (GMT +0200)
Aurillac

Weather History for LFLW - November, 2013

Change the Weather History Date:

Monday, November 11, 2013

  Actual Average Record
Temperature  
Mean Temperature 39 °F -  
Max Temperature 50 °F - - ()
Min Temperature 28 °F - - ()
Degree Days  
Heating Degree Days 26    
Moisture  
Dew Point 29 °F    
Average Humidity 73    
Maximum Humidity 100    
Minimum Humidity 40    
Precipitation  
Precipitation 0.00 in - - ()
Sea Level Pressure  
Sea Level Pressure 30.29 in    
Wind  
Wind Speed 4 mph ()    
Max Wind Speed 14 mph    
Max Gust Speed -    
Visibility 5.8 miles    
Events Fog    
T = Trace of Precipitation, MM = Missing Value Source: Averaged Metar Reports

Daily Weather History Graph

Daily Weather History Graph

Search for Another Location

Airport or City:

Trip Planner

Search our weather history database for the weather conditions in past years. The results will help you decide how hot, cold, wet, or windy it might be!

Date:

Astronomy

Nov. 11, 2013 Rise Set
Actual Time 7:42 AM CET 5:25 PM CET
Civil Twilight 7:10 AM CET 5:57 PM CET
Nautical Twilight 6:35 AM CET 6:32 PM CET
Astronomical Twilight 6:01 AM CET 7:06 PM CET
Moon 2:12 PM CET (11/11) 12:54 AM CET (11/11)
Length of Visible Light 10h 46m
Length of Day
9h 43m
Waxing Gibbous, 63% of the Moon is Illuminated
Nov 11
Waxing Gibbous
Nov 17
Full
Nov 25
Last Quarter
Dec 3
New
Dec 9
First Quarter

Hourly Weather History & Observations

Time (CET) Temp. Windchill Dew Point Humidity Pressure Visibility Wind Dir Wind Speed Gust Speed Precip Events Conditions
12:00 AM 37.4 °F 32.8 °F 32.0 °F 81% 30.24 in 6.2 mi North 5.8 mph - N/A   Unknown
12:30 AM 37.4 °F 32.1 °F 30.2 °F 75% 30.24 in 6.2 mi North 6.9 mph - N/A   Unknown
1:00 AM 37.4 °F 32.8 °F 28.4 °F 70% 30.24 in 6.2 mi NNW 5.8 mph - N/A   Unknown
1:30 AM 37.4 °F 33.8 °F 28.4 °F 70% 30.24 in 6.2 mi NNW 4.6 mph - N/A   Unknown
2:00 AM 35.6 °F 31.7 °F 28.4 °F 75% 30.24 in 6.2 mi WNW 4.6 mph - N/A   Unknown
2:30 AM 33.8 °F - 28.4 °F 81% 30.24 in 6.2 mi Variable 2.3 mph - N/A   Unknown
3:00 AM 33.8 °F 28.6 °F 30.2 °F 87% 30.27 in 6.2 mi NW 5.8 mph - N/A   Unknown
3:30 AM 33.8 °F 27.7 °F 30.2 °F 87% 30.27 in 6.2 mi NW 6.9 mph - N/A   Unknown
4:00 AM 32.0 °F 28.7 °F 30.2 °F 93% 30.27 in 6.2 mi Variable 3.5 mph - N/A   Unknown
4:30 AM 32.0 °F - 28.4 °F 87% 30.27 in 6.2 mi Variable 1.2 mph - N/A   Unknown
5:00 AM 30.2 °F - 28.4 °F 93% 30.27 in 6.2 mi Calm Calm - N/A   Unknown
5:30 AM 30.2 °F - 28.4 °F 93% 30.27 in 6.2 mi Calm Calm - N/A   Unknown
6:00 AM 30.2 °F - 28.4 °F 93% 30.27 in 6.2 mi WNW 2.3 mph - N/A   Unknown
6:30 AM 28.4 °F - 26.6 °F 93% 30.27 in 6.2 mi Calm Calm - N/A   Unknown
7:00 AM 28.4 °F - 26.6 °F 93% 30.27 in 0.2 mi Calm Calm - N/A Fog Light Freezing Fog
7:30 AM 28.4 °F - 28.4 °F 100% 30.27 in 5.6 mi Variable 1.2 mph - N/A   Unknown
8:00 AM 28.4 °F - 26.6 °F 93% 30.27 in 0.3 mi Calm Calm - N/A Fog Light Freezing Fog
8:30 AM 28.4 °F - 28.4 °F 100% 30.30 in - Calm Calm - N/A Fog Patches of Fog
9:00 AM 32.0 °F - 30.2 °F 93% 30.30 in 5.0 mi Calm Calm - N/A   Unknown
9:30 AM 32.0 °F - 30.2 °F 93% 30.30 in 6.2 mi Calm Calm - N/A   Unknown
10:00 AM 33.8 °F - 32.0 °F 93% 30.30 in 0.2 mi Variable 1.2 mph - N/A Fog Fog
10:30 AM 35.6 °F - 32.0 °F 87% 30.30 in - Variable 1.2 mph - N/A   Mist
11:00 AM 39.2 °F - 33.8 °F 81% 30.30 in 6.2 mi Variable 2.3 mph - N/A   Unknown
11:30 AM 42.8 °F - 35.6 °F 76% 30.30 in 6.2 mi Calm Calm - N/A   Unknown
12:00 PM 46.4 °F 42.4 °F 32.0 °F 57% 30.30 in 6.2 mi WNW 8.1 mph - N/A   Unknown
12:30 PM 48.2 °F - 32.0 °F 54% 30.30 in 6.2 mi WNW 6.9 mph - N/A   Unknown
1:00 PM 48.2 °F - 28.4 °F 46% 30.27 in 6.2 mi NW 10.4 mph - N/A   Unknown
1:30 PM 50.0 °F - 26.6 °F 40% 30.27 in 6.2 mi NNW 10.4 mph - N/A   Unknown
2:00 PM 50.0 °F - 28.4 °F 43% 30.27 in 6.2 mi NW 11.5 mph - N/A   Unknown
2:30 PM 48.2 °F - 30.2 °F 50% 30.30 in 6.2 mi NW 13.8 mph - N/A   Unknown
3:00 PM 48.2 °F - 32.0 °F 54% 30.30 in 6.2 mi NNW 12.7 mph - N/A   Unknown
3:30 PM 48.2 °F - 32.0 °F 54% 30.30 in 6.2 mi NW 12.7 mph - N/A   Unknown
4:00 PM 48.2 °F - 32.0 °F 54% 30.30 in 6.2 mi NNW 9.2 mph - N/A   Unknown
4:30 PM 48.2 °F - 30.2 °F 50% 30.30 in 6.2 mi NNW 10.4 mph - N/A   Unknown
5:00 PM 46.4 °F 42.4 °F 28.4 °F 50% 30.30 in 6.2 mi NNW 8.1 mph - N/A   Unknown
5:30 PM 44.6 °F 39.7 °F 28.4 °F 53% 30.30 in 6.2 mi NNW 9.2 mph - N/A   Unknown
6:00 PM 42.8 °F 38.0 °F 28.4 °F 57% 30.30 in 6.2 mi NNW 8.1 mph - N/A   Unknown
6:30 PM 41.0 °F 35.2 °F 26.6 °F 57% 30.30 in 6.2 mi NNW 9.2 mph - N/A   Unknown
7:00 PM 41.0 °F 34.7 °F 24.8 °F 53% 30.30 in 6.2 mi NNW 10.4 mph - N/A   Unknown
7:30 PM 41.0 °F 36.4 °F 24.8 °F 53% 30.30 in 6.2 mi NNW 6.9 mph - N/A   Unknown
8:00 PM 39.2 °F 35.9 °F 26.6 °F 61% 30.30 in 6.2 mi WSW 4.6 mph - N/A   Unknown
8:30 PM 37.4 °F 33.8 °F 26.6 °F 65% 30.33 in 6.2 mi West 4.6 mph - N/A   Unknown
9:00 PM 37.4 °F 34.9 °F 26.6 °F 65% 30.33 in 6.2 mi WSW 3.5 mph - N/A   Unknown
9:30 PM 35.6 °F 32.8 °F 28.4 °F 75% 30.33 in 6.2 mi WSW 3.5 mph - N/A   Unknown
10:00 PM 35.6 °F 32.8 °F 28.4 °F 75% 30.33 in 6.2 mi WSW 3.5 mph - N/A   Unknown
10:30 PM 33.8 °F - 28.4 °F 81% 30.33 in 6.2 mi Calm Calm - N/A   Unknown
11:00 PM 32.0 °F - 28.4 °F 87% 30.30 in 6.2 mi Calm Calm - N/A   Unknown
11:30 PM 32.0 °F - 28.4 °F 87% 30.30 in 6.2 mi Calm Calm - N/A   Unknown